Back to catalog

STARLINK-32144

AliveCommunicationsVLEO
NORAD 60269·PAYLOAD·🇺🇸 United States

Launched Jul 27, 2024 from Cape Canaveral Space Force Station

Loading…

Next Passes (next 24 hours)

TLE

FreshSource: CelesTrak SupGP

Epoch: Sep 14, 2026, 15:11 UTC

1 60269C 24131Q   26257.63312500 -.00029584  00000+0 -95153-3 0  2578
2 60269  53.1566 253.3179 0000638 140.9579   4.9895 15.31710637    13

Track STARLINK-32144 in real time with AllMySat

Download on the App Store